DW0331 Weather Reports


time (UTC)temp
C
wind
direction
speed
KPH
gust
KPH
rain 1hr
cm
rain 24hr
cm
rain mn
cm
humidity
%
barometer
mb
20260507005007 8 1 3.2 24.1 0.00 1.09 1.07 84 1008.6
20260507004006 8 1 1.6 9.7 0.00 1.12 1.07 84 1008.6
20260507003007 8 0 0.0 14.5 0.00 1.12 1.07 84 1008.7
20260507002007 8 0 0.0 8.0 0.00 1.12 1.07 83 1008.6
20260507000006 8 1 1.6 12.9 0.00 1.12 1.07 82 1008.4
20260506235007 8 0 0.0 14.5 0.00 1.12 1.07 83 1008.4
20260506234007 8 0 0.0 11.3 0.00 1.12 1.07 81 1008.2
20260506233007 8 212 1.6 17.7 0.00 1.12 1.07 81 1008.1
20260506232007 8 214 1.6 19.3 0.00 1.12 1.07 79 1008.1
20260506231007 9 210 1.6 14.5 0.00 1.14 1.07 79 1008.1
20260506230007 9 224 1.6 11.3 0.00 1.14 1.07 77 1008.0
20260506225007 9 211 1.6 19.3 0.00 1.14 1.07 74 1008.1
20260506224006 9 204 1.6 14.5 0.00 1.14 1.07 74 1008.0
20260506223006 9 0 0.0 14.5 0.00 1.14 1.07 75 1008.0
20260506222007 9 205 1.6 11.3 0.00 1.14 1.07 73 1007.9
20260506221006 9 0 0.0 14.5 0.00 1.14 1.07 73 1008.0
20260506220006 9 0 0.0 11.3 0.00 1.14 1.07 75 1007.9
20260506215007 9 240 1.6 9.7 0.00 1.14 1.07 72 1008.0
20260506214007 9 0 0.0 4.8 0.00 1.14 1.07 73 1008.0
20260506213006 9 241 1.6 14.5 0.00 1.14 1.07 73 1007.8
20260506211007 9 0 0.0 8.0 0.00 1.14 1.07 73 1007.7
20260506210007 9 0 0.0 11.3 0.00 1.14 1.07 74 1007.7
20260506205006 9 0 0.0 1.6 0.00 1.14 1.07 75 1007.8
20260506203006 9 0 0.0 8.0 0.00 1.14 1.07 75 1008.0
20260506202006 9 0 0.0 1.6 0.00 1.14 1.07 76 1007.7
20260506201007 9 0 0.0 3.2 0.00 1.14 1.07 77 1007.7
20260506200006 9 0 0.0 0.0 0.00 1.14 1.07 74 1007.8
20260506195007 8 0 0.0 0.0 0.00 1.14 1.07 76 1007.9
20260506194007 8 0 0.0 0.0 0.00 1.14 1.07 78 1007.9
20260506193006 8 0 0.0 0.0 0.00 1.14 1.07 78 1007.9
20260506192006 8 0 0.0 0.0 0.00 1.14 1.07 81 1008.0
20260506191007 7 0 0.0 0.0 0.00 1.14 1.07 81 1008.1
20260506190006 7 0 0.0 1.6 0.00 1.14 1.07 83 1008.2
20260506185007 7 0 0.0 0.0 0.00 1.14 1.07 85 1008.1
20260506184007 7 0 0.0 0.0 0.00 1.14 1.07 85 1008.2
20260506183006 7 0 0.0 0.0 0.00 1.14 1.07 86 1008.2
20260506182006 7 0 0.0 0.0 0.00 1.14 1.07 85 1008.1
20260506181006 7 0 0.0 0.0 0.00 1.14 1.07 85 1008.1
20260506180006 7 0 0.0 0.0 0.00 1.14 1.07 86 1008.3
20260506175007 7 0 0.0 0.0 0.00 1.14 1.07 89 1008.4
20260506174006 7 0 0.0 0.0 0.00 1.14 1.07 88 1008.3
20260506172007 7 0 0.0 0.0 0.00 1.14 1.07 89 1008.1
20260506171006 6 0 0.0 0.0 0.00 1.14 1.07 88 1008.0
20260506170006 6 0 0.0 0.0 0.00 1.14 1.07 87 1007.9
20260506165007 6 0 0.0 0.0 0.00 1.14 1.07 86 1007.9
20260506164006 6 0 0.0 0.0 0.00 1.14 1.07 86 1008.2
20260506163007 6 0 0.0 0.0 0.00 1.14 1.07 87 1008.2
20260506162006 6 0 0.0 0.0 0.00 1.14 1.07 88 1008.1
20260506161006 6 0 0.0 0.0 0.00 1.14 1.07 89 1008.3
20260506160006 6 0 0.0 0.0 0.03 1.14 1.07 88 1008.5
20260506155006 6 0 0.0 0.0 0.03 1.14 1.07 91 1008.5
20260506153007 6 0 0.0 0.0 0.03 1.14 1.07 91 1008.8
20260506152006 6 0 0.0 0.0 0.03 1.14 1.07 92 1008.7
20260506151006 6 0 0.0 0.0 0.03 1.14 1.07 92 1008.9
20260506150007 5 0 0.0 0.0 0.00 1.12 1.04 91 1008.6
20260506145006 5 0 0.0 0.0 0.03 1.12 1.04 91 1008.6
20260506144006 5 0 0.0 0.0 0.05 1.12 1.04 91 1008.8
20260506143006 5 0 0.0 0.0 0.05 1.12 1.04 92 1008.5
20260506142007 5 0 0.0 0.0 0.08 1.12 1.04 91 1008.3
20260506141006 5 0 0.0 0.0 0.10 1.12 1.04 92 1008.5
20260506140007 5 0 0.0 0.0 0.10 1.12 1.04 92 1008.5
20260506135006 5 0 0.0 0.0 0.10 1.09 1.02 92 1008.5
20260506134006 5 0 0.0 1.6 0.10 1.07 0.99 92 1008.4
20260506133007 5 0 0.0 0.0 0.13 1.07 0.99 93 1008.3
20260506132006 5 0 0.0 1.6 0.10 1.04 0.97 93 1008.4
20260506131006 5 0 0.0 0.0 0.10 1.02 0.94 94 1008.5
20260506130007 5 0 0.0 0.0 0.10 1.02 0.94 93 1008.6
20260506125006 5 0 0.0 0.0 0.10 0.99 0.91 94 1008.4
20260506124006 5 0 0.0 0.0 0.08 0.97 0.89 95 1008.5
20260506123007 5 0 0.0 0.0 0.05 0.94 0.86 95 1008.6
20260506122006 5 0 0.0 0.0 0.08 0.94 0.86 95 1008.6
20260506121006 5 0 0.0 0.0 0.05 0.91 0.84 95 1008.4
20260506114006 5 0 0.0 0.0 0.08 0.89 0.81 95 1008.3
20260506113006 5 0 0.0 0.0 0.10 0.89 0.81 95 1008.4
20260506112007 5 0 0.0 0.0 0.10 0.86 0.79 95 1008.5
20260506111006 5 0 0.0 0.0 0.13 0.86 0.79 95 1008.7
20260506110006 6 0 0.0 0.0 0.15 0.84 0.76 95 1008.6
20260506105006 5 0 0.0 0.0 0.18 0.81 0.74 95 1008.4
20260506104007 5 0 0.0 0.0 0.23 0.81 0.74 95 1008.5
20260506103006 5 0 0.0 0.0 0.25 0.79 0.71 95 1008.4
20260506102011 5 0 0.0 0.0 0.25 0.76 0.69 95 1008.5
20260506101007 5 0 0.0 0.0 0.25 0.71 0.64 94 1008.5
20260506100006 5 0 0.0 0.0 0.30 0.69 0.61 94 1008.5
20260506094006 5 0 0.0 0.0 0.30 0.58 0.51 94 1008.4
20260506093006 5 0 0.0 0.0 0.33 0.53 0.46 94 1008.3
20260506092006 6 0 0.0 0.0 0.38 0.51 0.43 94 1008.1
20260506091007 6 0 0.0 0.0 0.36 0.46 0.38 93 1008.2
20260506090006 6 0 0.0 0.0 0.30 0.38 0.30 93 1008.1
20260506085006 6 0 0.0 0.0 0.25 0.33 0.25 93 1008.5
20260506083006 6 0 0.0 3.2 0.13 0.20 0.13 92 1008.7
20260506082006 6 0 0.0 1.6 0.05 0.13 0.05 92 1008.9
20260506081006 6 0 0.0 9.7 0.00 0.08 0.00 91 1008.7
20260506073006 7 0 0.0 6.4 0.00 0.08 0.00 90 1008.3
20260506072006 6 0 0.0 8.0 0.00 0.08 0.00 90 1008.2
20260506071006 7 357 1.6 8.0 0.00 0.08 0.00 90 1008.2
20260506062006 7 0 0.0 12.9 0.00 0.08 0.00 91 1008.1
20260506061006 7 1 1.6 14.5 0.00 0.08 0.00 91 1008.1
20260506051006 7 340 1.6 17.7 0.00 0.08 0.00 90 1008.5
20260506043006 7 0 0.0 17.7 0.00 0.08 0.00 90 1008.5
20260506042006 7 252 1.6 11.3 0.00 0.08 0.00 89 1008.4
20260506041006 7 290 3.2 17.7 0.00 0.08 0.00 90 1008.4
20260506040008 7 274 4.8 20.9 0.00 0.08 0.00 89 1008.2
20260506035007 8 208 4.8 20.9 0.00 0.08 0.08 89 1008.1
20260506034006 8 206 3.2 20.9 0.00 0.08 0.08 89 1008.2
20260506033006 8 206 3.2 17.7 0.00 0.08 0.08 88 1008.3
20260506032006 8 352 1.6 17.7 0.00 0.08 0.08 88 1008.4
20260506031006 8 313 1.6 17.7 0.00 0.08 0.08 88 1008.5
20260506030005 8 236 1.6 14.5 0.00 0.08 0.08 89 1008.4
20260506025006 8 0 0.0 16.1 0.00 0.08 0.08 89 1008.3
20260506024006 8 0 0.0 14.5 0.00 0.08 0.08 89 1007.9
20260506022006 8 0 0.0 6.4 0.00 0.08 0.08 88 1007.9
20260506021006 8 0 0.0 6.4 0.00 0.08 0.08 87 1007.9
20260506020006 8 0 0.0 0.0 0.00 0.08 0.08 88 1007.5
20260506014006 8 0 0.0 0.0 0.05 0.08 0.08 87 1007.2
20260506013005 8 0 0.0 0.0 0.05 0.08 0.08 85 1007.1
20260506012006 8 0 0.0 0.0 0.05 0.08 0.08 83 1007.0
20260506011006 8 0 0.0 0.0 0.05 0.08 0.08 83 1007.1